Location: Carrières
(48.9495°N, 2.0407°E)
Time: 18:05:32
(UTC+00:00)

Altair - Pass Details

Date: 25 April 2024
Orbit: 1502 x 1682 km, 47.2° (Epoch: 21 May)

Event Time Altitude Azimuth Distance (km) Brightness Sun altitude
Rises 00:01:20 0° 290° (WNW) 4,849 10.3 -27.7°
Reaches altitude 10° 00:04:50 10° 282° (WNW) 3,834 9.6 -27.7°
Enters shadow 00:12:08 34° 235° (SW) 2,384 8.1 -27.6°
